User: anonymous   Login
Location: St. Louis
(38.6270°N, 90.1994°W)
Time: 13:11:11
(UTC-06:00)
Language:

NOAA 19 - Orbit

View from above orbital plane
View from above orbital plane
View from above satellite
View from above satellite

Ground track
Ground track

The orbit data is extracted from the following two-line orbital elements,

1 33591U 09005A   22019.59935903  .00000090  00000-0  74024-4 0  9992
2 33591  99.1663  50.4758 0013111 244.4326 115.5489 14.12523532667435
Epoch (UTC): 19 January 2022 14:23:04
Eccentricity: 0.0013111
inclination: 99.1663°
perigee height: 841 km
apogee height: 860 km
right ascension of ascending node: 50.4758°
argument of perigee: 244.4326°
revolutions per day: 14.12523532
mean anomaly at epoch: 115.5489°
orbit number at epoch: 66743

The dashed part of the orbit path shows where the satellite is in the earth's shadow,  

DLR